Tekamah, NE

7:49 PM CDT on May 23, 2017 (GMT -0500)
Tekamah

Weather History for KTQE - July, 2012

Change the Weather History Date:

Monday, July 30, 2012

  Actual Average Record
Temperature  
Mean Temperature 84 °F -  
Max Temperature 99 °F 86 °F 106 °F (1955)
Min Temperature 70 °F 63 °F 44 °F (1971)
Cooling Degree Days 20    
Growing Degree Days 34 (Base 50)    
Moisture  
Dew Point 67 °F    
Average Humidity 66    
Maximum Humidity 93    
Minimum Humidity 28    
Precipitation  
Precipitation 0.00 in - - ()
Sea Level Pressure  
Sea Level Pressure 29.90 in    
Wind  
Wind Speed 3 mph (SSW)    
Max Wind Speed 7 mph    
Max Gust Speed -    
Visibility 7 miles    
Events      
Averages and records for this station are not official NWS values.
T = Trace of Precipitation, MM = Missing Value Source: NWS Daily Summary

Daily Weather History Graph

Daily Weather History Graph

Search for Another Location

Airport or City:

Trip Planner

Search our weather history database for the weather conditions in past years. The results will help you decide how hot, cold, wet, or windy it might be!

Date:

Astronomy

Jul. 30, 2012 Rise Set
Actual Time 6:17 AM CDT 8:44 PM CDT
Civil Twilight 5:45 AM CDT 9:15 PM CDT
Nautical Twilight 5:06 AM CDT 9:54 PM CDT
Astronomical Twilight 4:22 AM CDT 10:38 PM CDT
Moon 6:47 PM CDT (7/30) 3:32 AM CDT (7/30)
Length of Visible Light 15h 29m
Length of Day
14h 26m
Waxing Gibbous, 92% of the Moon is Illuminated
Jul 30
Waxing Gibbous
Aug 1
Full
Aug 9
Last Quarter
Aug 17
New
Aug 24
First Quarter

Hourly Weather History & Observations

Time (CDT) Temp. Heat Index Dew Point Humidity Pressure Visibility Wind Dir Wind Speed Gust Speed Precip Events Conditions
12:54 AM 75.0 °F - 70.0 °F 84% 29.90 in 9.0 mi WNW 4.6 mph - N/A   Clear
1:54 AM 73.0 °F - 69.1 °F 87% 29.88 in 7.0 mi NNE 5.8 mph - N/A   Clear
2:54 AM 73.0 °F - 70.0 °F 90% 29.88 in 6.0 mi NNE 4.6 mph - N/A   Clear
3:54 AM 72.0 °F - 69.1 °F 91% 29.91 in 4.0 mi West 4.6 mph - N/A   Clear
4:54 AM 72.0 °F - 69.1 °F 91% 29.92 in 4.0 mi Calm Calm - N/A   Clear
5:54 AM 70.0 °F - 68.0 °F 93% 29.94 in 4.0 mi Calm Calm - N/A   Partly Cloudy
6:54 AM 70.0 °F - 66.9 °F 90% 29.92 in 3.0 mi Calm Calm - N/A   Clear
7:27 AM 71.6 °F - 68.0 °F 88% 29.97 in 2.5 mi Calm Calm - N/A   Clear
7:45 AM 71.6 °F - 68.0 °F 88% 29.96 in 3.0 mi Calm Calm - N/A   Clear
7:54 AM 72.0 °F - 69.1 °F 91% 29.92 in 3.0 mi Calm Calm - N/A   Clear
8:54 AM 75.9 °F - 70.0 °F 82% 29.93 in 4.0 mi Calm Calm - N/A   Haze
9:54 AM 78.1 °F - 71.1 °F 79% 29.93 in 5.0 mi Calm Calm - N/A   Haze
10:54 AM 82.9 °F 87.5 °F 71.1 °F 67% 29.91 in 8.0 mi Variable 3.5 mph - N/A   Clear
11:54 AM 90.0 °F 94.5 °F 69.1 °F 50% 29.90 in 10.0 mi North 4.6 mph - N/A   Clear
12:54 PM 91.0 °F 95.2 °F 68.0 °F 47% 29.90 in 10.0 mi South 4.6 mph - N/A   Clear
1:54 PM 96.1 °F 98.8 °F 64.9 °F 36% 29.89 in 10.0 mi Calm Calm - N/A   Clear
2:54 PM 97.0 °F 99.3 °F 64.0 °F 34% 29.88 in 10.0 mi Variable 6.9 mph - N/A   Clear
3:54 PM 98.1 °F 100.7 °F 64.0 °F 33% 29.87 in 10.0 mi South 5.8 mph - N/A   Clear
4:54 PM 99.0 °F 99.5 °F 60.1 °F 28% 29.86 in 10.0 mi SSW 3.5 mph - N/A   Clear
5:54 PM 99.0 °F 100.5 °F 62.1 °F 30% 29.86 in 10.0 mi South 5.8 mph - N/A   Clear
6:54 PM 97.0 °F 98.3 °F 63.0 °F 32% 29.85 in 10.0 mi South 6.9 mph - N/A   Clear
7:54 PM 90.0 °F 92.4 °F 66.0 °F 45% 29.85 in 10.0 mi SSW 6.9 mph - N/A   Clear
8:54 PM 81.0 °F 83.3 °F 66.9 °F 62% 29.86 in 10.0 mi South 4.6 mph - N/A   Clear
9:54 PM 78.1 °F - 64.0 °F 62% 29.88 in 10.0 mi SW 5.8 mph - N/A   Clear
10:54 PM 78.1 °F - 63.0 °F 60% 29.91 in 10.0 mi Calm Calm - N/A   Clear
11:54 PM 73.9 °F - 64.0 °F 71% 29.91 in 10.0 mi SE 5.8 mph - N/A   Clear